Year,Month,Day,Hour,Minute,Value (Times are PST for temperature in C)
2018,06,17,00,00,24.00
2018,06,17,00,01,24.00
2018,06,17,00,02,24.10
2018,06,17,00,03,24.10
2018,06,17,00,04,24.10
2018,06,17,00,05,24.20
2018,06,17,00,06,24.20
2018,06,17,00,07,24.20
2018,06,17,00,08,24.10
2018,06,17,00,09,24.00
2018,06,17,00,10,23.70
2018,06,17,00,11,23.50
2018,06,17,00,12,23.20
2018,06,17,00,13,22.80
2018,06,17,00,14,22.50
2018,06,17,00,15,22.10
2018,06,17,00,16,21.90
2018,06,17,00,17,21.70
2018,06,17,00,18,21.50
2018,06,17,00,19,21.30
2018,06,17,00,20,21.20
2018,06,17,00,21,21.00
2018,06,17,00,22,20.80
2018,06,17,00,23,20.70
2018,06,17,00,24,20.50
2018,06,17,00,25,20.40
2018,06,17,00,26,20.20
2018,06,17,00,27,20.10
2018,06,17,00,28,20.00
2018,06,17,00,29,19.90
2018,06,17,00,30,19.80
2018,06,17,00,31,19.70
2018,06,17,00,32,19.60
2018,06,17,00,33,19.40
2018,06,17,00,34,19.30
2018,06,17,00,35,19.20
2018,06,17,00,36,19.20
2018,06,17,00,37,19.10
2018,06,17,00,38,19.10
2018,06,17,00,39,19.00
2018,06,17,00,40,18.90
2018,06,17,00,41,18.80
2018,06,17,00,42,18.80
2018,06,17,00,43,18.70
2018,06,17,00,44,18.70
2018,06,17,00,45,18.60
2018,06,17,00,46,18.60
2018,06,17,00,47,18.50
2018,06,17,00,48,18.50
2018,06,17,00,49,18.40
2018,06,17,00,50,18.40
2018,06,17,00,51,18.40
2018,06,17,00,52,18.30
2018,06,17,00,53,18.30
2018,06,17,00,54,18.30
2018,06,17,00,55,18.20
2018,06,17,00,56,18.20
2018,06,17,00,57,18.20
2018,06,17,00,58,18.10
2018,06,17,00,59,18.10
2018,06,17,01,00,18.10
2018,06,17,01,01,18.10
2018,06,17,01,02,18.00
2018,06,17,01,03,18.00
2018,06,17,01,04,18.00
2018,06,17,01,05,17.90
2018,06,17,01,06,17.90
2018,06,17,01,07,17.90
2018,06,17,01,08,17.90
2018,06,17,01,09,17.90
2018,06,17,01,10,17.90
2018,06,17,01,11,17.90
2018,06,17,01,12,17.90
2018,06,17,01,13,17.80
2018,06,17,01,14,17.80
2018,06,17,01,15,17.80
2018,06,17,01,16,17.80
2018,06,17,01,17,17.80
2018,06,17,01,18,17.80
2018,06,17,01,19,17.80
2018,06,17,01,20,17.80
2018,06,17,01,21,17.80
2018,06,17,01,22,17.80
2018,06,17,01,23,17.80
2018,06,17,01,24,17.80
2018,06,17,01,25,17.80
2018,06,17,01,26,17.80
2018,06,17,01,27,17.80
2018,06,17,01,28,17.80
2018,06,17,01,29,17.80
2018,06,17,01,30,17.70
2018,06,17,01,31,17.70
2018,06,17,01,32,17.80
2018,06,17,01,33,17.80
2018,06,17,01,34,17.80
2018,06,17,01,35,17.80
2018,06,17,01,36,17.80
2018,06,17,01,37,17.80
2018,06,17,01,38,17.80
2018,06,17,01,39,17.80
2018,06,17,01,40,17.80
2018,06,17,01,41,17.80
2018,06,17,01,42,17.80
2018,06,17,01,43,17.90
2018,06,17,01,44,17.90
2018,06,17,01,45,18.00
2018,06,17,01,46,18.10
2018,06,17,01,47,18.10
2018,06,17,01,48,18.10
2018,06,17,01,49,18.20
2018,06,17,01,50,18.20
2018,06,17,01,51,18.20
2018,06,17,01,52,18.20
2018,06,17,01,53,18.20
2018,06,17,01,54,18.20
2018,06,17,01,55,18.20
2018,06,17,01,56,18.20
2018,06,17,01,57,18.30
2018,06,17,01,58,18.30
2018,06,17,01,59,18.30
2018,06,17,02,00,18.40
2018,06,17,02,01,18.40
2018,06,17,02,02,18.40
2018,06,17,02,03,18.40
2018,06,17,02,04,18.40
2018,06,17,02,05,18.40
2018,06,17,02,06,18.50
2018,06,17,02,07,18.50
2018,06,17,02,08,18.50
2018,06,17,02,09,18.50
2018,06,17,02,10,18.50
2018,06,17,02,11,18.50
2018,06,17,02,12,18.60
2018,06,17,02,13,18.60
2018,06,17,02,14,18.70
2018,06,17,02,15,18.70
2018,06,17,02,16,18.70
2018,06,17,02,17,18.70
2018,06,17,02,18,18.70
2018,06,17,02,19,18.70
2018,06,17,02,20,18.70
2018,06,17,02,21,18.70
2018,06,17,02,22,18.70
2018,06,17,02,23,18.80
2018,06,17,02,24,18.80
2018,06,17,02,25,18.80
2018,06,17,02,26,18.80
2018,06,17,02,27,18.80
2018,06,17,02,28,18.80
2018,06,17,02,29,18.80
2018,06,17,02,30,18.90
2018,06,17,02,31,18.90
2018,06,17,02,32,18.90
2018,06,17,02,33,19.00
2018,06,17,02,34,19.00
2018,06,17,02,35,19.10
2018,06,17,02,36,19.10
2018,06,17,02,37,19.10
2018,06,17,02,38,19.20
2018,06,17,02,39,19.20
2018,06,17,02,40,19.10
2018,06,17,02,41,19.10
2018,06,17,02,42,19.10
2018,06,17,02,43,19.10
2018,06,17,02,44,19.00
2018,06,17,02,45,19.00
2018,06,17,02,46,18.90
2018,06,17,02,47,18.90
2018,06,17,02,48,18.90
2018,06,17,02,49,18.80
2018,06,17,02,50,18.80
2018,06,17,02,51,18.70
2018,06,17,02,52,18.70
2018,06,17,02,53,18.70
2018,06,17,02,54,18.60
2018,06,17,02,55,18.60
2018,06,17,02,56,18.60
2018,06,17,02,57,18.60
2018,06,17,02,58,18.70
2018,06,17,02,59,18.70
2018,06,17,03,00,18.70
2018,06,17,03,01,18.80
2018,06,17,03,02,18.90
2018,06,17,03,03,18.90
2018,06,17,03,04,19.00
2018,06,17,03,05,19.00
2018,06,17,03,06,19.10
2018,06,17,03,07,19.20
2018,06,17,03,08,19.20
2018,06,17,03,09,19.20
2018,06,17,03,10,19.30
2018,06,17,03,11,19.30
2018,06,17,03,12,19.40
2018,06,17,03,13,19.40
2018,06,17,03,14,19.40
2018,06,17,03,15,19.40
2018,06,17,03,16,19.30
2018,06,17,03,17,19.30
2018,06,17,03,18,19.30
2018,06,17,03,19,19.30
2018,06,17,03,20,19.30
2018,06,17,03,21,19.30
2018,06,17,03,22,19.30
2018,06,17,03,23,19.30
2018,06,17,03,24,19.30
2018,06,17,03,25,19.30
2018,06,17,03,26,19.20
2018,06,17,03,27,19.20
2018,06,17,03,28,19.20
2018,06,17,03,29,19.20
2018,06,17,03,30,19.20
2018,06,17,03,31,19.20
2018,06,17,03,32,19.10
2018,06,17,03,33,19.10
2018,06,17,03,34,19.10
2018,06,17,03,35,19.10
2018,06,17,03,36,19.10
2018,06,17,03,37,19.10
2018,06,17,03,38,19.10
2018,06,17,03,39,19.10
2018,06,17,03,40,19.00
2018,06,17,03,41,19.00
2018,06,17,03,42,19.00
2018,06,17,03,43,19.00
2018,06,17,03,44,18.90
2018,06,17,03,45,18.90
2018,06,17,03,46,18.90
2018,06,17,03,47,18.90
2018,06,17,03,48,18.90
2018,06,17,03,49,18.90
2018,06,17,03,50,18.90
2018,06,17,03,51,18.90
2018,06,17,03,52,18.90
2018,06,17,03,53,18.90
2018,06,17,03,54,18.90
2018,06,17,03,55,18.80
2018,06,17,03,56,18.80
2018,06,17,03,57,18.80
2018,06,17,03,58,18.80
2018,06,17,03,59,18.70
2018,06,17,04,00,18.70
2018,06,17,04,01,18.70
2018,06,17,04,02,18.70
2018,06,17,04,03,18.70
2018,06,17,04,04,18.70
2018,06,17,04,05,18.70
2018,06,17,04,06,18.70
2018,06,17,04,07,18.70
2018,06,17,04,08,18.70
2018,06,17,04,09,18.70
2018,06,17,04,10,18.70
2018,06,17,04,11,18.70
2018,06,17,04,12,18.70
2018,06,17,04,13,18.70
2018,06,17,04,14,18.70
2018,06,17,04,15,18.70
2018,06,17,04,16,18.70
2018,06,17,04,17,18.70
2018,06,17,04,18,18.70
2018,06,17,04,19,18.70
2018,06,17,04,20,18.70
2018,06,17,04,21,18.70
2018,06,17,04,22,18.60
2018,06,17,04,23,18.60
2018,06,17,04,24,18.60
2018,06,17,04,25,18.60
2018,06,17,04,26,18.60
2018,06,17,04,27,18.60
2018,06,17,04,28,18.60
2018,06,17,04,29,18.60
2018,06,17,04,30,18.60
2018,06,17,04,31,18.60
2018,06,17,04,32,18.70
2018,06,17,04,33,18.70
2018,06,17,04,34,18.70
2018,06,17,04,35,18.70
2018,06,17,04,36,18.80
2018,06,17,04,37,18.80
2018,06,17,04,38,18.80
2018,06,17,04,39,18.80
2018,06,17,04,40,18.80
2018,06,17,04,41,18.80
2018,06,17,04,42,18.80
2018,06,17,04,43,18.80
2018,06,17,04,44,18.80
2018,06,17,04,45,18.80
2018,06,17,04,46,18.70
2018,06,17,04,47,18.70
2018,06,17,04,48,18.70
2018,06,17,04,49,18.70
2018,06,17,04,50,18.60
2018,06,17,04,51,18.60
2018,06,17,04,52,18.60
2018,06,17,04,53,18.60
2018,06,17,04,54,18.50
2018,06,17,04,55,18.50
2018,06,17,04,56,18.40
2018,06,17,04,57,18.40
2018,06,17,04,58,18.40
2018,06,17,04,59,18.40
2018,06,17,05,00,18.40
2018,06,17,05,01,18.40
2018,06,17,05,02,18.40
2018,06,17,05,03,18.40
2018,06,17,05,04,18.40
2018,06,17,05,05,18.40
2018,06,17,05,06,18.40
2018,06,17,05,07,18.30
2018,06,17,05,08,18.30
2018,06,17,05,09,18.30
2018,06,17,05,10,18.30
2018,06,17,05,11,18.30
2018,06,17,05,12,18.30
2018,06,17,05,13,18.30
2018,06,17,05,14,18.40
2018,06,17,05,15,18.40
2018,06,17,05,16,18.40
2018,06,17,05,17,18.40
2018,06,17,05,18,18.40
2018,06,17,05,19,18.40
2018,06,17,05,20,18.40
2018,06,17,05,21,18.30
2018,06,17,05,22,18.30
2018,06,17,05,23,18.30
2018,06,17,05,24,18.30
2018,06,17,05,25,18.30
2018,06,17,05,26,18.30
2018,06,17,05,27,18.30
2018,06,17,05,28,18.20
2018,06,17,05,29,18.20
2018,06,17,05,30,18.20
2018,06,17,05,31,18.20
2018,06,17,05,32,18.20
2018,06,17,05,33,18.20
2018,06,17,05,34,18.10
2018,06,17,05,35,18.10
2018,06,17,05,36,18.10
2018,06,17,05,37,18.10
2018,06,17,05,38,18.10
2018,06,17,05,39,18.10
2018,06,17,05,40,18.10
2018,06,17,05,41,18.00
2018,06,17,05,42,18.00
2018,06,17,05,43,18.00
2018,06,17,05,44,18.00
2018,06,17,05,45,18.00
2018,06,17,05,46,18.00
2018,06,17,05,47,18.00
2018,06,17,05,48,18.00
2018,06,17,05,49,18.00
2018,06,17,05,50,18.00
2018,06,17,05,51,17.90
2018,06,17,05,52,17.90
2018,06,17,05,53,17.90
2018,06,17,05,54,17.90
2018,06,17,05,55,17.90
2018,06,17,05,56,17.90
2018,06,17,05,57,17.90
2018,06,17,05,58,17.90
2018,06,17,05,59,17.90
2018,06,17,06,00,17.90
2018,06,17,06,01,17.90
2018,06,17,06,02,17.90
2018,06,17,06,03,17.80
2018,06,17,06,04,17.80
2018,06,17,06,05,17.80
2018,06,17,06,06,17.80
2018,06,17,06,07,17.80
2018,06,17,06,08,17.80
2018,06,17,06,09,17.70
2018,06,17,06,10,17.70
2018,06,17,06,11,17.70
2018,06,17,06,12,17.70
2018,06,17,06,13,17.70
2018,06,17,06,14,17.60
2018,06,17,06,15,17.60
2018,06,17,06,16,17.60
2018,06,17,06,17,17.60
2018,06,17,06,18,17.60
2018,06,17,06,19,17.60
2018,06,17,06,20,17.60
2018,06,17,06,21,17.50
2018,06,17,06,22,17.50
2018,06,17,06,23,17.50
2018,06,17,06,24,17.50
2018,06,17,06,25,17.50
2018,06,17,06,26,17.50
2018,06,17,06,27,17.50
2018,06,17,06,28,17.50
2018,06,17,06,29,17.50
2018,06,17,06,30,17.50
2018,06,17,06,31,17.50
2018,06,17,06,32,17.50
2018,06,17,06,33,17.50
2018,06,17,06,34,17.50
2018,06,17,06,35,17.50
2018,06,17,06,36,17.50
2018,06,17,06,37,17.50
2018,06,17,06,38,17.50
2018,06,17,06,39,17.60
2018,06,17,06,40,17.60
2018,06,17,06,41,17.60
2018,06,17,06,42,17.60
2018,06,17,06,43,17.70
2018,06,17,06,44,17.70
2018,06,17,06,45,17.70
2018,06,17,06,46,17.70
2018,06,17,06,47,17.70
2018,06,17,06,48,17.70
2018,06,17,06,49,17.80
2018,06,17,06,50,17.80
2018,06,17,06,51,17.80
2018,06,17,06,52,17.80
2018,06,17,06,53,17.80
2018,06,17,06,54,17.90
2018,06,17,06,55,17.90
2018,06,17,06,56,17.90
2018,06,17,06,57,18.00
2018,06,17,06,58,18.00
2018,06,17,06,59,18.00
2018,06,17,07,00,18.00
2018,06,17,07,01,18.00
2018,06,17,07,02,18.00
2018,06,17,07,03,18.00
2018,06,17,07,04,18.00
2018,06,17,07,05,18.10
2018,06,17,07,06,18.10
2018,06,17,07,07,18.10
2018,06,17,07,08,18.00
2018,06,17,07,09,18.00
2018,06,17,07,10,18.10
2018,06,17,07,11,18.10
2018,06,17,07,12,18.10
2018,06,17,07,13,18.10
2018,06,17,07,14,18.10
2018,06,17,07,15,18.20
2018,06,17,07,16,18.20
2018,06,17,07,17,18.20
2018,06,17,07,18,18.20
2018,06,17,07,19,18.20
2018,06,17,07,20,18.20
2018,06,17,07,21,18.30
2018,06,17,07,22,18.30
2018,06,17,07,23,18.30
2018,06,17,07,24,18.30
2018,06,17,07,25,18.30
2018,06,17,07,26,18.40
2018,06,17,07,27,18.40
2018,06,17,07,28,18.40
2018,06,17,07,29,18.40
2018,06,17,07,30,18.50
2018,06,17,07,31,18.50
2018,06,17,07,32,18.60
2018,06,17,07,33,18.60
2018,06,17,07,34,18.60
2018,06,17,07,35,18.70
2018,06,17,07,36,18.70
2018,06,17,07,37,18.80
2018,06,17,07,38,18.80
2018,06,17,07,39,18.80
2018,06,17,07,40,18.90
2018,06,17,07,41,18.90
2018,06,17,07,42,18.90
2018,06,17,07,43,18.90
2018,06,17,07,44,19.00
2018,06,17,07,45,19.00
2018,06,17,07,46,19.10
2018,06,17,07,47,19.10
2018,06,17,07,48,19.10
2018,06,17,07,49,19.20
2018,06,17,07,50,19.20
2018,06,17,07,51,19.20
2018,06,17,07,52,19.20
2018,06,17,07,53,19.20
2018,06,17,07,54,19.20
2018,06,17,07,55,19.20
2018,06,17,07,56,19.20
2018,06,17,07,57,19.30
2018,06,17,07,58,19.30
2018,06,17,07,59,19.30
2018,06,17,08,00,19.30
2018,06,17,08,01,19.30
2018,06,17,08,02,19.30
2018,06,17,08,03,19.40
2018,06,17,08,04,19.40
2018,06,17,08,05,19.40
2018,06,17,08,06,19.40
2018,06,17,08,07,19.40
2018,06,17,08,08,19.40
2018,06,17,08,09,19.40
2018,06,17,08,10,19.40
2018,06,17,08,11,19.40
2018,06,17,08,12,19.50
2018,06,17,08,13,19.50
2018,06,17,08,14,19.50
2018,06,17,08,15,19.60
2018,06,17,08,16,19.60
2018,06,17,08,17,19.60
2018,06,17,08,18,19.60
2018,06,17,08,19,19.60
2018,06,17,08,20,19.60
2018,06,17,08,21,19.60
2018,06,17,08,22,19.60
2018,06,17,08,23,19.60
2018,06,17,08,24,19.60
2018,06,17,08,25,19.70
2018,06,17,08,26,19.70
2018,06,17,08,27,19.70
2018,06,17,08,28,19.70
2018,06,17,08,29,19.70
2018,06,17,08,30,19.70
2018,06,17,08,31,19.70
2018,06,17,08,32,19.70
2018,06,17,08,33,19.70
2018,06,17,08,34,19.70
2018,06,17,08,35,19.70
2018,06,17,08,36,19.70
2018,06,17,08,37,19.70
2018,06,17,08,38,19.70
2018,06,17,08,39,19.70
2018,06,17,08,40,19.70
2018,06,17,08,41,19.80
2018,06,17,08,42,19.80
2018,06,17,08,43,19.80
2018,06,17,08,44,19.80
2018,06,17,08,45,19.80
2018,06,17,08,46,19.90
2018,06,17,08,47,19.80
2018,06,17,08,48,19.90
2018,06,17,08,49,19.90
2018,06,17,08,50,19.90
2018,06,17,08,51,20.00
2018,06,17,08,52,20.00
2018,06,17,08,53,20.00
2018,06,17,08,54,20.00
2018,06,17,08,55,20.10
2018,06,17,08,56,20.10
2018,06,17,08,57,20.20
2018,06,17,08,58,20.20
2018,06,17,08,59,20.30
2018,06,17,09,00,20.30
2018,06,17,09,01,20.30
2018,06,17,09,02,20.40
2018,06,17,09,03,20.40
2018,06,17,09,04,20.40
2018,06,17,09,05,20.40
2018,06,17,09,06,20.40
2018,06,17,09,07,20.50
2018,06,17,09,08,20.50
2018,06,17,09,09,20.60
2018,06,17,09,10,20.60
2018,06,17,09,11,20.60
2018,06,17,09,12,20.70
2018,06,17,09,13,20.70
2018,06,17,09,14,20.70
2018,06,17,09,15,20.60
2018,06,17,09,16,20.60
2018,06,17,09,17,20.60
2018,06,17,09,18,20.60
2018,06,17,09,19,20.70
2018,06,17,09,20,20.70
2018,06,17,09,21,20.70
2018,06,17,09,22,20.60
2018,06,17,09,23,20.60
2018,06,17,09,24,20.50
2018,06,17,09,25,20.50
2018,06,17,09,26,20.40
2018,06,17,09,27,20.40
2018,06,17,09,28,20.40
2018,06,17,09,29,20.50
2018,06,17,09,30,20.50
2018,06,17,09,31,20.60
2018,06,17,09,32,20.60
2018,06,17,09,33,20.60
2018,06,17,09,34,20.70
2018,06,17,09,35,20.70
2018,06,17,09,36,20.80
2018,06,17,09,37,20.90
2018,06,17,09,38,20.90
2018,06,17,09,39,21.00
2018,06,17,09,40,21.00
2018,06,17,09,41,21.10
2018,06,17,09,42,21.10
2018,06,17,09,43,21.00
2018,06,17,09,44,20.90
2018,06,17,09,45,20.90
2018,06,17,09,46,20.90
2018,06,17,09,47,20.80
2018,06,17,09,48,20.80
2018,06,17,09,49,20.80
2018,06,17,09,50,20.90
2018,06,17,09,51,20.90
2018,06,17,09,52,21.00
2018,06,17,09,53,21.10
2018,06,17,09,54,21.10
2018,06,17,09,55,21.20
2018,06,17,09,56,21.30
2018,06,17,09,57,21.30
2018,06,17,09,58,21.30
2018,06,17,09,59,21.30
2018,06,17,10,00,21.30
2018,06,17,10,01,21.40
2018,06,17,10,02,21.40
2018,06,17,10,03,21.40
2018,06,17,10,04,21.40
2018,06,17,10,05,21.50
2018,06,17,10,06,21.40
2018,06,17,10,07,21.40
2018,06,17,10,08,21.40
2018,06,17,10,09,21.40
2018,06,17,10,10,21.40
2018,06,17,10,11,21.30
2018,06,17,10,12,21.30
2018,06,17,10,13,21.30
2018,06,17,10,14,21.30
2018,06,17,10,15,21.30
2018,06,17,10,16,21.20
2018,06,17,10,17,21.20
2018,06,17,10,18,21.10
2018,06,17,10,19,21.10
2018,06,17,10,20,21.10
2018,06,17,10,21,21.20
2018,06,17,10,22,21.20
2018,06,17,10,23,21.20
2018,06,17,10,24,21.20
2018,06,17,10,25,21.20
2018,06,17,10,26,21.20
2018,06,17,10,27,21.20
2018,06,17,10,28,21.20
2018,06,17,10,29,21.20
2018,06,17,10,30,21.20
2018,06,17,10,31,21.20
2018,06,17,10,32,21.20
2018,06,17,10,33,21.30
2018,06,17,10,34,21.40
2018,06,17,10,35,21.50
2018,06,17,10,36,21.50
2018,06,17,10,37,21.50
2018,06,17,10,38,21.40
2018,06,17,10,39,21.40
2018,06,17,10,40,21.50
2018,06,17,10,41,21.40
2018,06,17,10,42,21.40
2018,06,17,10,43,21.50
2018,06,17,10,44,21.50
2018,06,17,10,45,21.60
2018,06,17,10,46,21.50
2018,06,17,10,47,21.40
2018,06,17,10,48,21.40
2018,06,17,10,49,21.30
2018,06,17,10,50,21.30
2018,06,17,10,51,21.40
2018,06,17,10,52,21.50
2018,06,17,10,53,21.60
2018,06,17,10,54,21.70
2018,06,17,10,55,21.80
2018,06,17,10,56,21.80
2018,06,17,10,57,21.80
2018,06,17,10,58,21.80
2018,06,17,10,59,21.80
2018,06,17,11,00,21.70
2018,06,17,11,01,21.70
2018,06,17,11,02,21.60
2018,06,17,11,03,21.60
2018,06,17,11,04,21.60
2018,06,17,11,05,21.70
2018,06,17,11,06,21.70
2018,06,17,11,07,21.70
2018,06,17,11,08,21.70
2018,06,17,11,09,21.70
2018,06,17,11,10,21.80
2018,06,17,11,11,21.90
2018,06,17,11,12,21.90
2018,06,17,11,13,22.00
2018,06,17,11,14,22.10
2018,06,17,11,15,22.20
2018,06,17,11,16,22.30
2018,06,17,11,17,22.40
2018,06,17,11,18,22.50
2018,06,17,11,19,22.50
2018,06,17,11,20,22.60
2018,06,17,11,21,22.70
2018,06,17,11,22,22.80
2018,06,17,11,23,22.90
2018,06,17,11,24,23.00
2018,06,17,11,25,23.10
2018,06,17,11,26,23.10
2018,06,17,11,27,23.10
2018,06,17,11,28,23.10
2018,06,17,11,29,23.10
2018,06,17,11,30,23.10
2018,06,17,11,31,23.20
2018,06,17,11,32,23.20
2018,06,17,11,33,23.30
2018,06,17,11,34,23.40
2018,06,17,11,35,23.50
2018,06,17,11,36,23.60
2018,06,17,11,37,23.60
2018,06,17,11,38,23.50
2018,06,17,11,39,23.40
2018,06,17,11,40,23.30
2018,06,17,11,41,23.20
2018,06,17,11,42,23.10
2018,06,17,11,43,23.00
2018,06,17,11,44,23.00
2018,06,17,11,45,22.90
2018,06,17,11,46,22.80
2018,06,17,11,47,22.70
2018,06,17,11,48,22.70
2018,06,17,11,49,22.80
2018,06,17,11,50,22.80
2018,06,17,11,51,22.80
2018,06,17,11,52,22.80
2018,06,17,11,53,22.80
2018,06,17,11,54,22.70
2018,06,17,11,55,22.60
2018,06,17,11,56,22.60
2018,06,17,11,57,22.60
2018,06,17,11,58,22.50
2018,06,17,11,59,22.50
2018,06,17,12,00,22.60
2018,06,17,12,01,22.60
2018,06,17,12,02,22.50
2018,06,17,12,03,22.40
2018,06,17,12,04,22.30
2018,06,17,12,05,22.40
2018,06,17,12,06,22.40
2018,06,17,12,07,22.40
2018,06,17,12,08,22.40
2018,06,17,12,09,22.40
2018,06,17,12,10,22.40
2018,06,17,12,11,22.40
2018,06,17,12,12,22.40
2018,06,17,12,13,22.30
2018,06,17,12,14,22.40
2018,06,17,12,15,22.40
2018,06,17,12,16,22.40
2018,06,17,12,17,22.40
2018,06,17,12,18,22.30
2018,06,17,12,19,22.20
2018,06,17,12,20,22.20
2018,06,17,12,21,22.20
2018,06,17,12,22,22.20
2018,06,17,12,23,22.20
2018,06,17,12,24,22.20
2018,06,17,12,25,22.30
2018,06,17,12,26,22.40
2018,06,17,12,27,22.60
2018,06,17,12,28,22.70
2018,06,17,12,29,22.80
2018,06,17,12,30,22.90
2018,06,17,12,31,23.10
2018,06,17,12,32,23.20
2018,06,17,12,33,23.30
2018,06,17,12,34,23.30
2018,06,17,12,35,23.40
2018,06,17,12,36,23.40
2018,06,17,12,37,23.40
2018,06,17,12,38,23.40
2018,06,17,12,39,23.50
2018,06,17,12,40,23.60
2018,06,17,12,41,23.80
2018,06,17,12,42,23.90
2018,06,17,12,43,24.00
2018,06,17,12,44,24.10
2018,06,17,12,45,24.20
2018,06,17,12,46,24.20
2018,06,17,12,47,24.20
2018,06,17,12,48,24.30
2018,06,17,12,49,24.30
2018,06,17,12,50,24.30
2018,06,17,12,51,24.30
2018,06,17,12,52,24.30
2018,06,17,12,53,24.20
2018,06,17,12,54,24.20
2018,06,17,12,55,24.10
2018,06,17,12,56,24.00
2018,06,17,12,57,23.80
2018,06,17,12,58,23.80
2018,06,17,12,59,23.80
2018,06,17,13,00,23.80
2018,06,17,13,01,23.80
2018,06,17,13,02,23.80
2018,06,17,13,03,23.80
2018,06,17,13,04,23.60
2018,06,17,13,05,23.40
2018,06,17,13,06,23.30
2018,06,17,13,07,23.20
2018,06,17,13,08,23.10
2018,06,17,13,09,22.90
2018,06,17,13,10,22.80
2018,06,17,13,11,22.90
2018,06,17,13,12,22.90
2018,06,17,13,13,22.90
2018,06,17,13,14,22.90
2018,06,17,13,15,22.90
2018,06,17,13,16,22.80
2018,06,17,13,17,22.80
2018,06,17,13,18,22.80
2018,06,17,13,19,22.80
2018,06,17,13,20,22.90
2018,06,17,13,21,23.00
2018,06,17,13,22,23.10
2018,06,17,13,23,23.20
2018,06,17,13,24,23.30
2018,06,17,13,25,23.40
2018,06,17,13,26,23.50
2018,06,17,13,27,23.40
2018,06,17,13,28,23.40
2018,06,17,13,29,23.30
2018,06,17,13,30,23.30
2018,06,17,13,31,23.20
2018,06,17,13,32,23.20
2018,06,17,13,33,23.20
2018,06,17,13,34,23.00
2018,06,17,13,35,22.90
2018,06,17,13,36,22.90
2018,06,17,13,37,22.80
2018,06,17,13,38,22.70
2018,06,17,13,39,22.70
2018,06,17,13,40,22.70
2018,06,17,13,41,22.80
2018,06,17,13,42,22.80
2018,06,17,13,43,22.80
2018,06,17,13,44,22.80
2018,06,17,13,45,22.80
2018,06,17,13,46,22.70
2018,06,17,13,47,22.80
2018,06,17,13,48,22.80
2018,06,17,13,49,22.80
2018,06,17,13,50,22.90
2018,06,17,13,51,23.00
2018,06,17,13,52,23.10
2018,06,17,13,53,23.30
2018,06,17,13,54,23.40
2018,06,17,13,55,23.50
2018,06,17,13,56,23.60
2018,06,17,13,57,23.70
2018,06,17,13,58,23.80
2018,06,17,13,59,23.80
2018,06,17,14,00,23.90
2018,06,17,14,01,23.90
2018,06,17,14,02,23.90
2018,06,17,14,03,24.00
2018,06,17,14,04,24.20
2018,06,17,14,05,24.30
2018,06,17,14,06,24.40
2018,06,17,14,07,24.50
2018,06,17,14,08,24.60
2018,06,17,14,09,24.70
2018,06,17,14,10,24.70
2018,06,17,14,11,24.70
2018,06,17,14,12,24.80
2018,06,17,14,13,24.90
2018,06,17,14,14,25.10
2018,06,17,14,15,25.20
2018,06,17,14,16,25.30
2018,06,17,14,17,25.20
2018,06,17,14,18,25.20
2018,06,17,14,19,25.20
2018,06,17,14,20,25.10
2018,06,17,14,21,25.10
2018,06,17,14,22,25.10
2018,06,17,14,23,25.10
2018,06,17,14,24,25.10
2018,06,17,14,25,25.10
2018,06,17,14,26,25.10
2018,06,17,14,27,25.00
2018,06,17,14,28,25.00
2018,06,17,14,29,25.10
2018,06,17,14,30,25.10
2018,06,17,14,31,25.00
2018,06,17,14,32,24.90
2018,06,17,14,33,24.90
2018,06,17,14,34,24.90
2018,06,17,14,35,24.80
2018,06,17,14,36,24.90
2018,06,17,14,37,25.00
2018,06,17,14,38,25.00
2018,06,17,14,39,25.00
2018,06,17,14,40,25.10
2018,06,17,14,41,25.10
2018,06,17,14,42,25.00
2018,06,17,14,43,25.00
2018,06,17,14,44,25.00
2018,06,17,14,45,25.00
2018,06,17,14,46,25.00
2018,06,17,14,47,25.00
2018,06,17,14,48,25.10
2018,06,17,14,49,25.20
2018,06,17,14,50,25.30
2018,06,17,14,51,25.50
2018,06,17,14,52,25.60
2018,06,17,14,53,25.70
2018,06,17,14,54,25.80
2018,06,17,14,55,25.80
2018,06,17,14,56,25.80
2018,06,17,14,57,25.80
2018,06,17,14,58,25.90
2018,06,17,14,59,25.90
2018,06,17,15,00,25.90
2018,06,17,15,01,26.00
2018,06,17,15,02,26.10
2018,06,17,15,03,26.20
2018,06,17,15,04,26.20
2018,06,17,15,05,26.30
2018,06,17,15,06,26.30
2018,06,17,15,07,26.30
2018,06,17,15,08,26.30
2018,06,17,15,09,26.40
2018,06,17,15,10,26.40
2018,06,17,15,11,26.30
2018,06,17,15,12,26.30
2018,06,17,15,13,26.40
2018,06,17,15,14,26.40
2018,06,17,15,15,26.60
2018,06,17,15,16,26.70
2018,06,17,15,17,26.80
2018,06,17,15,18,26.90
2018,06,17,15,19,27.00
2018,06,17,15,20,27.10
2018,06,17,15,21,27.10
2018,06,17,15,22,27.20
2018,06,17,15,23,27.10
2018,06,17,15,24,27.10
2018,06,17,15,25,27.10
2018,06,17,15,26,27.00
2018,06,17,15,27,26.90
2018,06,17,15,28,26.70
2018,06,17,15,29,26.70
2018,06,17,15,30,26.70
2018,06,17,15,31,26.80
2018,06,17,15,32,26.70
2018,06,17,15,33,26.80
2018,06,17,15,34,26.80
2018,06,17,15,35,26.80
2018,06,17,15,36,26.80
2018,06,17,15,37,26.80
2018,06,17,15,38,26.90
2018,06,17,15,39,26.90
2018,06,17,15,40,27.00
2018,06,17,15,41,27.10
2018,06,17,15,42,27.10
2018,06,17,15,43,27.20
2018,06,17,15,44,27.10
2018,06,17,15,45,27.10
2018,06,17,15,46,27.00
2018,06,17,15,47,27.00
2018,06,17,15,48,26.90
2018,06,17,15,49,26.80
2018,06,17,15,50,26.80
2018,06,17,15,51,26.80
2018,06,17,15,52,26.80
2018,06,17,15,53,26.80
2018,06,17,15,54,26.80
2018,06,17,15,55,26.80
2018,06,17,15,56,26.80
2018,06,17,15,57,26.80
2018,06,17,15,58,26.80
2018,06,17,15,59,26.80
2018,06,17,16,00,26.80
2018,06,17,16,01,26.80
2018,06,17,16,02,26.80
2018,06,17,16,03,26.90
2018,06,17,16,04,26.90
2018,06,17,16,05,27.00
2018,06,17,16,06,27.10
2018,06,17,16,07,27.20
2018,06,17,16,08,27.20
2018,06,17,16,09,27.30
2018,06,17,16,10,27.30
2018,06,17,16,11,27.40
2018,06,17,16,12,27.50
2018,06,17,16,13,27.50
2018,06,17,16,14,27.50
2018,06,17,16,15,27.60
2018,06,17,16,16,27.70
2018,06,17,16,17,27.70
2018,06,17,16,18,27.60
2018,06,17,16,19,27.70
2018,06,17,16,20,27.70
2018,06,17,16,21,27.70
2018,06,17,16,22,27.60
2018,06,17,16,23,27.60
2018,06,17,16,24,27.60
2018,06,17,16,25,27.60
2018,06,17,16,26,27.60
2018,06,17,16,27,27.70
2018,06,17,16,28,27.80
2018,06,17,16,29,27.80
2018,06,17,16,30,27.80
2018,06,17,16,31,27.90
2018,06,17,16,32,27.90
2018,06,17,16,33,28.00
2018,06,17,16,34,28.10
2018,06,17,16,35,28.20
2018,06,17,16,36,28.30
2018,06,17,16,37,28.40
2018,06,17,16,38,28.40
2018,06,17,16,39,28.40
2018,06,17,16,40,28.40
2018,06,17,16,41,28.40
2018,06,17,16,42,28.30
2018,06,17,16,43,28.20
2018,06,17,16,44,28.20
2018,06,17,16,45,28.20
2018,06,17,16,46,28.10
2018,06,17,16,47,28.10
2018,06,17,16,48,28.10
2018,06,17,16,49,28.10
2018,06,17,16,50,28.10
2018,06,17,16,51,28.10
2018,06,17,16,52,28.10
2018,06,17,16,53,28.20
2018,06,17,16,54,28.20
2018,06,17,16,55,28.30
2018,06,17,16,56,28.30
2018,06,17,16,57,28.30
2018,06,17,16,58,28.40
2018,06,17,16,59,28.40
2018,06,17,17,00,28.40
2018,06,17,17,01,28.40
2018,06,17,17,02,28.40
2018,06,17,17,03,28.50
2018,06,17,17,04,28.50
2018,06,17,17,05,28.40
2018,06,17,17,06,28.40
2018,06,17,17,07,28.50
2018,06,17,17,08,28.40
2018,06,17,17,09,28.40
2018,06,17,17,10,28.40
2018,06,17,17,11,28.40
2018,06,17,17,12,28.30
2018,06,17,17,13,28.30
2018,06,17,17,14,28.40
2018,06,17,17,15,28.40
2018,06,17,17,16,28.50
2018,06,17,17,17,28.50
2018,06,17,17,18,28.60
2018,06,17,17,19,28.60